Raleigh-Durham Airport, NC

12:32 AM EDT on August 20, 2017 (GMT -0400)
Raleigh-Durham International

Weather History for KRDU - April, 2015

Change the Weather History Date:

Friday, April 3, 2015

  Actual Average Record
Temperature  
Mean Temperature 72 °F 57 °F  
Max Temperature 83 °F 69 °F 91 °F (1967)
Min Temperature 61 °F 45 °F 25 °F (1992)
Degree Days  
Heating Degree Days 0 9  
Month to date heating degree days 16 27  
Since 1 July heating degree days 3332 3023  
Cooling Degree Days 7 1  
Month to date cooling degree days 7 3  
Year to date cooling degree days 11 15  
Growing Degree Days 22 (Base 50)    
Moisture  
Dew Point 55 °F    
Average Humidity 62    
Maximum Humidity 90    
Minimum Humidity 34    
Precipitation  
Precipitation 0.00 in 0.11 in 1.11 in (1915)
Month to date precipitation 0.00 0.34  
Year to date precipitation 9.54 11.18  
Snow  
Snow 0.00 in 0.00 in 10.00 in (1915)
Month to date snowfall 0.0 0.0  
Since 1 July snowfall 7.9 6.0  
Snow Depth 0.00 in    
Sea Level Pressure  
Sea Level Pressure 30.01 in    
Wind  
Wind Speed 16 mph (SW)    
Max Wind Speed 30 mph    
Max Gust Speed 37 mph    
Visibility 10 miles    
Events      
T = Trace of Precipitation, MM = Missing Value Source: NWS Daily Summary

Daily Weather History Graph

Daily Weather History Graph

Search for Another Location

Airport or City:

Trip Planner

Search our weather history database for the weather conditions in past years. The results will help you decide how hot, cold, wet, or windy it might be!

Date:

Astronomy

Apr. 03, 2015 Rise Set
Actual Time 6:59 AM EDT 7:38 PM EDT
Civil Twilight 6:33 AM EDT 8:04 PM EDT
Nautical Twilight 6:02 AM EDT 8:34 PM EDT
Astronomical Twilight 5:31 AM EDT 9:06 PM EDT
Moon 7:06 PM EDT (4/3) 6:29 AM EDT (4/3)
Length of Visible Light 13h 31m
Length of Day
12h 39m
Waxing Gibbous, 99% of the Moon is Illuminated
Apr 3
Waxing Gibbous
Apr 4
Full
Apr 11
Last Quarter
Apr 18
New
Apr 25
First Quarter

Hourly Weather History & Observations

Time (EDT) Temp. Heat Index Dew Point Humidity Pressure Visibility Wind Dir Wind Speed Gust Speed Precip Events Conditions
12:51 AM 63.0 °F - 54.0 °F 72% 30.15 in 10.0 mi SSW 16.1 mph - N/A   Mostly Cloudy
1:51 AM 62.1 °F - 54.0 °F 75% 30.13 in 10.0 mi SSW 11.5 mph - N/A   Mostly Cloudy
2:18 AM 62.6 °F - 53.6 °F 72% 30.13 in 10.0 mi SSW 11.5 mph - N/A   Mostly Cloudy
2:51 AM 61.0 °F - 55.0 °F 81% 30.11 in 10.0 mi SSW 12.7 mph - N/A   Mostly Cloudy
3:51 AM 62.1 °F - 55.0 °F 78% 30.07 in 10.0 mi SSW 15.0 mph 29.9 mph N/A   Mostly Cloudy
4:51 AM 62.1 °F - 55.9 °F 80% 30.08 in 10.0 mi SW 13.8 mph 23.0 mph N/A   Mostly Cloudy
5:19 AM 62.6 °F - 55.4 °F 77% 30.08 in 10.0 mi SW 17.3 mph 23.0 mph N/A   Mostly Cloudy
5:51 AM 60.8 °F - 55.4 °F 82% 30.08 in 10.0 mi SW 18.4 mph 24.2 mph N/A   Mostly Cloudy
6:51 AM 61.0 °F - 57.0 °F 87% 30.09 in 10.0 mi SW 12.7 mph - N/A   Overcast
7:51 AM 62.1 °F - 57.0 °F 84% 30.09 in 10.0 mi SW 12.7 mph - N/A   Mostly Cloudy
8:02 AM 62.6 °F - 57.2 °F 82% 30.10 in 10.0 mi SW 12.7 mph - N/A   Mostly Cloudy
8:28 AM 64.4 °F - 57.2 °F 77% 30.09 in 10.0 mi SW 13.8 mph - N/A   Mostly Cloudy
8:51 AM 64.0 °F - 59.0 °F 84% 30.08 in 10.0 mi SW 15.0 mph - N/A   Overcast
9:51 AM 66.0 °F - 60.1 °F 81% 30.07 in 10.0 mi SW 15.0 mph 24.2 mph N/A   Overcast
10:51 AM 68.0 °F - 61.0 °F 78% 30.07 in 10.0 mi SW 18.4 mph 25.3 mph N/A   Overcast
11:51 AM 72.0 °F - 62.1 °F 71% 30.04 in 10.0 mi SW 18.4 mph 24.2 mph N/A   Mostly Cloudy
12:51 PM 78.1 °F - 61.0 °F 56% 30.01 in 10.0 mi SW 21.9 mph 29.9 mph N/A   Mostly Cloudy
1:51 PM 78.1 °F - 57.9 °F 50% 29.99 in 10.0 mi WSW 19.6 mph 31.1 mph N/A   Mostly Cloudy
2:51 PM 80.1 °F 80.2 °F 55.9 °F 43% 29.95 in 10.0 mi WSW 19.6 mph 28.8 mph N/A   Mostly Cloudy
3:51 PM 82.0 °F - 51.1 °F 34% 29.93 in 10.0 mi WSW 19.6 mph 31.1 mph N/A   Mostly Cloudy
4:51 PM 82.9 °F - 52.0 °F 34% 29.89 in 10.0 mi SW 16.1 mph 29.9 mph N/A   Mostly Cloudy
5:51 PM 80.1 °F - 50.0 °F 35% 29.88 in 10.0 mi WSW 19.6 mph 28.8 mph N/A   Mostly Cloudy
6:51 PM 77.0 °F - 51.1 °F 40% 29.88 in 10.0 mi SW 13.8 mph 21.9 mph N/A   Mostly Cloudy
7:51 PM 77.0 °F - 48.9 °F 37% 29.85 in 10.0 mi SW 17.3 mph - N/A   Mostly Cloudy
8:51 PM 75.0 °F - 53.1 °F 46% 29.85 in 10.0 mi SSW 15.0 mph 20.7 mph N/A   Mostly Cloudy
9:51 PM 73.9 °F - 55.0 °F 52% 29.85 in 10.0 mi SSW 17.3 mph 25.3 mph N/A   Mostly Cloudy
10:51 PM 73.9 °F - 55.0 °F 52% 29.85 in 10.0 mi SSW 16.1 mph 24.2 mph N/A   Mostly Cloudy
11:51 PM 73.0 °F - 55.9 °F 55% 29.84 in 10.0 mi SSW 15.0 mph 23.0 mph N/A   Overcast